Location: Hurstbourne Priors
(51.2000°N, 1.3667°W)
Time: 00:02:56
(UTC+00:00)

A-11 Canister half - Visible Passes

Search period start: 19 April 2021 00:00
Search period end: 29 April 2021 00:00
Orbit: 1525 x 1683 km, 47.3° (Epoch: 18 April)

Date Brightness Start Highest point End Pass type
(mag) Time Alt. Az. Time Alt. Az. Time Alt. Az.
19 Apr 9.4 19:52:20 10° W 20:02:19 63° SSW 20:11:50 11° ESE visible
19 Apr 9.9 21:57:35 10° W 22:06:15 34° SW 22:10:07 26° S visible
20 Apr 9.4 19:30:40 10° W 19:40:39 64° SSW 19:50:34 10° ESE visible
20 Apr 9.9 21:35:51 10° W 21:44:38 35° SW 21:49:34 23° S visible
21 Apr 9.9 21:14:07 10° W 21:23:01 36° SW 21:29:03 20° SSE visible
21 Apr 10.8 23:23:27 10° WSW 23:25:39 11° WSW 23:27:20 10° SW visible
22 Apr 9.9 20:52:25 10° W 21:01:24 38° SW 21:08:33 16° SSE visible
22 Apr 10.8 23:00:56 10° WSW 23:04:06 12° WSW 23:06:51 10° SW visible
23 Apr 9.9 20:30:41 10° W 20:39:47 39° SW 20:48:06 12° SSE visible
23 Apr 10.8 22:38:40 10° W 22:42:33 13° WSW 22:46:24 10° SW visible
24 Apr 9.9 20:08:59 10° W 20:18:10 41° SW 20:27:16 10° SSE visible
24 Apr 10.8 22:16:32 10° W 22:21:00 14° WSW 22:25:28 10° SSW visible
25 Apr 10.0 19:47:17 10° W 19:56:32 42° SW 20:05:44 10° SSE visible
25 Apr 10.8 21:54:30 10° W 21:59:27 15° SW 22:04:23 10° SSW visible
26 Apr 10.8 21:32:31 10° W 21:37:54 16° SW 21:43:15 10° SSW visible
27 Apr 10.8 21:10:34 10° W 21:16:20 17° SW 21:22:04 10° SSW visible
28 Apr 10.8 20:48:40 10° W 20:54:46 18° SW 21:00:51 10° SSW visible
